GW7273 Weather Reports


time (UTC)temp
F
wind
direction
speed
knots
gust
knots
rain 1hr
in
rain 24hr
in
rain mn
in
humidity
%
barometer
mb
20260905211550 54 331 4.3 13.9 0.00 0.32 0.32 90 1016.8
20260905210105 55 284 4.3 8.7 0.00 0.32 0.32 90 1016.6
20260905204546 55 281 3.5 9.6 0.00 0.34 0.32 90 1016.6
20260905203052 55 332 3.5 7.8 0.00 0.34 0.32 90 1016.4
20260905201557 55 261 4.3 11.3 0.00 0.34 0.32 90 1016.3
20260905200106 55 251 3.5 9.6 0.00 0.34 0.32 90 1016.3
20260905194548 55 235 3.5 9.6 0.00 0.35 0.32 90 1016.2
20260905193053 55 290 4.3 7.8 0.00 0.35 0.32 91 1016.0
20260905191550 55 255 4.3 9.6 0.00 0.35 0.32 90 1015.8
20260905190048 55 261 4.3 10.4 0.00 0.35 0.32 90 1015.6
20260905184548 55 323 3.5 7.8 0.00 0.35 0.32 90 1015.4
20260905183051 55 321 3.5 8.7 0.00 0.35 0.32 91 1015.4
20260905181549 55 323 3.5 7.8 0.00 0.35 0.32 91 1015.3
20260905180045 55 278 4.3 8.7 0.00 0.35 0.32 90 1015.2
20260905174559 56 289 2.6 7.8 0.00 0.68 0.32 89 1015.0
20260905173047 56 307 4.3 13.9 0.01 0.68 0.32 88 1014.9
20260905171559 56 321 6.1 11.3 0.07 0.68 0.32 88 1015.0
20260905170056 56 310 4.3 10.4 0.07 0.68 0.32 91 1014.7
20260905164550 56 264 5.2 15.6 0.07 0.70 0.32 89 1014.8
20260905163048 57 264 13.9 21.7 0.05 0.69 0.30 85 1014.9
20260905161550 58 312 3.5 5.2 0.00 0.63 0.25 85 1014.3
20260905160053 58 271 1.7 5.2 0.03 0.63 0.25 85 1014.0
20260905154555 57 295 2.6 7.8 0.04 0.63 0.25 85 1014.0
20260905153047 57 287 2.6 7.8 0.04 0.63 0.25 85 1014.0
20260905151545 59 267 5.2 13.0 0.03 0.62 0.24 86 1014.3
20260905150048 61 305 4.3 6.1 0.00 0.59 0.21 80 1014.1
20260905144553 62 319 3.5 7.8 0.00 0.59 0.20 78 1014.0
20260905143045 61 12 4.3 6.1 0.00 0.59 0.20 82 1013.9
20260905141551 59 326 1.7 6.1 0.18 0.59 0.20 84 1014.0
20260905140052 59 293 5.2 13.0 0.18 0.59 0.20 83 1013.9
20260905134552 60 329 7.8 19.1 0.17 0.58 0.19 84 1014.1
20260905133051 61 284 3.5 9.6 0.17 0.58 0.19 83 1013.9
20260905131548 63 309 3.5 8.7 0.00 0.40 0.02 76 1013.7
20260905130046 64 226 3.5 8.7 0.00 0.40 0.02 76 1013.7
20260905124551 62 261 1.7 7.0 0.00 0.40 0.02 82 1013.7
20260905123051 61 235 2.6 7.0 0.00 0.40 0.02 83 1013.8
20260905121547 59 245 1.7 6.1 0.02 0.40 0.02 86 1013.9
20260905120051 58 283 3.5 6.1 0.02 0.40 0.02 87 1014.0
20260905114606 57 302 2.6 11.3 0.02 0.40 0.02 85 1014.0
20260905113051 59 302 8.7 18.2 0.01 0.40 0.01 81 1014.4
20260905111543 63 296 8.7 17.4 0.00 0.38 0.00 67 1013.9
20260905110051 63 316 6.1 14.8 0.00 0.38 0.00 71 1013.8
20260905104551 65 290 6.1 13.0 0.00 0.38 0.00 64 1013.6
20260905103051 66 202 7.0 13.9 0.00 0.38 0.00 64 1013.3
20260905101547 65 316 7.8 14.8 0.00 0.38 0.00 63 1013.5
20260905100050 65 51 7.8 14.8 0.00 0.38 0.00 64 1013.5
20260905094601 66 287 7.8 14.8 0.00 0.38 0.00 62 1013.5
20260905093045 64 321 7.0 17.4 0.00 0.38 0.00 66 1013.4
20260905091600 64 309 8.7 17.4 0.00 0.38 0.00 68 1013.4
20260905090049 64 271 7.0 13.9 0.00 0.38 0.00 67 1013.3
20260905084547 64 311 7.8 16.5 0.00 0.38 0.00 68 1013.2
20260905083051 63 176 7.8 15.6 0.00 0.38 0.00 72 1013.1
20260905081559 63 2 10.4 17.4 0.00 0.38 0.00 70 1012.8
20260905080056 63 252 11.3 18.2 0.00 0.38 0.00 70 1012.6
20260905074548 62 354 8.7 15.6 0.00 0.38 0.00 75 1012.6
20260905073047 62 331 7.8 16.5 0.00 0.38 0.00 76 1012.6
20260905071558 61 267 7.8 14.8 0.00 0.38 0.00 78 1012.4
20260905070049 60 238 4.3 13.0 0.00 0.38 0.00 77 1012.2
20260905064553 61 248 4.3 13.0 0.00 0.38 0.00 77 1012.1
20260905063050 60 253 7.0 14.8 0.00 0.38 0.00 77 1011.9
20260905061607 61 316 7.0 17.4 0.00 0.38 0.00 79 1011.8
20260905060050 60 275 6.1 16.5 0.00 0.38 0.00 81 1011.8
20260905054549 60 261 7.0 14.8 0.00 0.38 0.00 82 1011.6
20260905053054 60 268 7.8 14.8 0.00 0.38 0.00 83 1011.3
20260905051550 59 303 5.2 12.2 0.00 0.38 0.00 83 1011.2
20260905050048 59 315 6.1 10.4 0.00 0.38 0.00 84 1011.0
20260905044544 58 327 4.3 8.7 0.00 0.38 0.00 85 1010.9
20260905043112 58 307 5.2 13.0 0.00 0.38 0.00 85 1010.7
20260905041548 58 311 3.5 9.6 0.00 0.38 0.00 86 1010.5
20260905040113 58 323 4.3 10.4 0.00 0.38 0.00 85 1010.3
20260905034558 59 294 3.5 13.9 0.00 0.38 0.00 85 1010.2
20260905033053 59 289 4.3 7.8 0.00 0.38 0.00 85 1009.9
20260905031548 59 311 3.5 8.7 0.00 0.38 0.00 83 1009.9
20260905030057 59 245 5.2 8.7 0.00 0.38 0.00 82 1009.6
20260905024550 60 316 5.2 10.4 0.00 0.38 0.00 81 1009.5
20260905023053 60 304 4.3 10.4 0.00 0.38 0.00 80 1009.4
20260905021551 60 304 5.2 12.2 0.00 0.38 0.00 82 1009.4
20260905020054 60 331 4.3 10.4 0.00 0.38 0.00 81 1009.1
20260905014550 60 350 6.1 9.6 0.00 0.38 0.00 80 1009.2
20260905013057 61 310 7.8 13.9 0.00 0.38 0.00 81 1009.0
20260905011548 61 290 5.2 13.9 0.00 0.38 0.00 83 1008.7
20260905010050 61 290 6.1 13.9 0.00 0.38 0.00 84 1008.8
20260905004557 61 301 8.7 15.6 0.00 0.38 0.00 84 1008.5
20260905003047 61 317 7.8 17.4 0.00 0.38 0.00 85 1007.9
20260905001546 61 302 7.8 13.9 0.00 0.38 0.00 86 1008.1
20260905000051 61 308 6.1 13.0 0.00 0.38 0.00 87 1007.9
20260904234555 61 300 7.0 13.0 0.00 0.38 0.00 87 1007.8
20260904233047 61 302 6.1 13.9 0.00 0.38 0.00 87 1007.6
20260904231547 61 298 5.2 11.3 0.00 0.38 0.00 87 1007.4
20260904230051 61 306 7.0 13.0 0.00 0.38 0.00 87 1007.2
20260904224555 61 319 7.0 13.0 0.00 0.38 0.00 87 1007.2
20260904223047 61 274 5.2 11.3 0.00 0.38 0.00 87 1007.1
20260904221548 62 269 5.2 17.4 0.00 0.38 0.00 86 1007.1
20260904220110 62 278 7.8 13.9 0.00 0.38 0.00 85 1006.9
20260904214548 62 263 6.1 13.9 0.00 0.38 0.38 84 1006.5
20260904213050 62 341 7.0 13.9 0.00 0.38 0.38 85 1006.4